Flag for Cameroon Weather past 2 weeks in Bamenda, Cameroon

Now
90 °F

Partly sunny.


Feels Like: 100 °F
Forecast: 65 / 82 °F
Wind: 7 mph from Southwest

Location: Douala Obs.


UV Index: 3 (Moderate)

Visibility: N/A


Pressure: 29.80 "Hg

Humidity: 63%

Dew point: 75 °F

Location of BamendaLocation

Historic Weather in Bamenda

°F

Bamenda temperature yesterday

Maximum temperature yesterday: 81 °F (at 5:00 PM)
Minimum temperature yesterday: 75 °F (at 10:00 AM)
Average temperature yesterday: 78 °F

Past Weeks' High & Low Weather Summary

 TemperatureHumidityPressure
High93 °F (Apr 17, 2:00 PM)100% (Apr 11, 12:00 AM)29.95 "Hg (Apr 11, 12:00 AM)
Low72 °F (Apr 12, 9:00 PM)56% (Apr 12, 2:00 PM)29.71 "Hg (Apr 12, 3:00 PM)
Average81 °F84%29.84 "Hg
* Reported Apr 9 1:00 PM — Apr 21 12:00 Noon, Bamenda, Weather by CustomWeather, © 2014

Note: Actual official high and low records may vary slightly from our data, if they occured in-between our weather recording intervals... More about our weather records

Advertising

Historic Weather Conditions — Data for Previous 24 hours

 ConditionsComfort  
Time TempWeatherWind HumidityBarometerVisibility
12:00 PM
Apr 21
88 °FScattered clouds.5 mph66%29.80 "HgN/A
11:00 AM88 °FScattered clouds.7 mph66%29.83 "HgN/A
10:00 AM84 °FScattered clouds.3 mph74%29.86 "HgN/A
9:00 AM79 °FScattered clouds.3 mph89%29.89 "HgN/A
8:00 AM77 °FPartly sunny.2 mph94%29.86 "Hg5 mi
7:00 AM75 °FBroken clouds.No wind100%29.86 "Hg4 mi
6:00 AM75 °FPartly cloudy.No wind100%29.86 "Hg4 mi
5:00 AM75 °FPartly cloudy.No wind100%29.83 "HgN/A
4:00 AM75 °FPassing clouds.No wind100%29.83 "HgN/A
3:00 AM75 °FPassing clouds.No wind94%29.80 "HgN/A
2:00 AM75 °FPassing clouds.3 mph100%29.80 "HgN/A
1:00 AM75 °FPassing clouds.5 mph100%29.83 "Hg5 mi
12:00 AM75 °FPassing clouds.3 mph94%29.86 "Hg5 mi
11:00 PM
Apr 20
77 °FPartly cloudy.3 mph94%29.86 "Hg5 mi
10:00 PM75 °FPartly cloudy.3 mph100%29.86 "Hg5 mi
9:00 PM77 °FPassing clouds.2 mph94%29.83 "Hg5 mi
8:00 PM77 °FPassing clouds.2 mph94%29.83 "Hg5 mi
7:00 PM77 °FPassing clouds.3 mph94%29.80 "Hg5 mi
6:00 PM79 °FBroken clouds.3 mph89%29.80 "HgN/A
5:00 PM81 °FBroken clouds.2 mph79%29.77 "HgN/A
4:00 PM79 °FThunderstorms. Partly sunny.3 mph84%29.77 "HgN/A
3:00 PM79 °FThunderstorms. Partly sunny.3 mph89%29.80 "HgN/A
2:00 PM77 °FThunderstorms. Partly sunny.5 mph94%29.83 "Hg5 mi
1:00 PM77 °FThunderstorms. Partly sunny.No wind94%29.86 "Hg4 mi
Weather by CustomWeather, © 2014

See weather overview